Regional Weather Roundup
Issued by NWS Northern Indiana

Home | Current Version | Previous Version | Graphics & Text | Print | Product List | Glossary On
Versions: 1 2 3 4 5 6 7 8 9 10 11 12 13 14 15 16 17 18 19 20 21 22 23 24 25 26 27 28 29 30 31 32 33 34 35 36 37 38 39 40 41 42 43 44 45 46 47 48 49 50
000
ASUS43 KIWX 241509
RWRIWX

KIWX WEATHER ROUNDUP
NATIONAL WEATHER SERVICE NORTHERN INDIANA
1100 AM EDT MON APR 24 2017

NOTE: "FAIR" INDICATES FEW OR NO CLOUDS BELOW 12,000 FEET WITH NO
SIGNIFICANT WEATHER AND/OR OBSTRUCTIONS TO VISIBILITY.

* THESE STATIONS ARE NOT UNDER NWS QUALITY CONTROL. THEY ALSO MAY NOT
  REPORT WEATHER SUCH AS PRECIPITATION OR FOG.

INZ001>027-241600-
NORTHERN INDIANA

CITY           SKY/WX    TMP DP  RH WIND       PRES   REMARKS
GARY*          MOSUNNY   55  43  62 CALM      30.03F
VALPARAISO     SUNNY     66  35  31 E12       30.02F
KNOX*          SUNNY    N/A N/A N/A E12       30.02F
SOUTH BEND     SUNNY     62  32  32 E12       30.03F
ELKHART*       SUNNY     63  32  31 E7        30.03F
GOSHEN         SUNNY     62  36  37 E10       30.03S
WARSAW*        SUNNY     63  32  31 NE9       30.03S
ROCHESTER*     SUNNY     66  25  20 E9        30.02F
FORT WAYNE     MOSUNNY   60  36  40 E12       30.02F
PERU/GRISSOM   SUNNY     63  32  31 E10       29.99F
MARION*        SUNNY     63  34  34 E13       30.00S

$$

INZ028>050-241600-
CENTRAL INDIANA

CITY           SKY/WX    TMP DP  RH WIND       PRES   REMARKS
LAFAYETTE      SUNNY     62  41  46 E9        29.99F
KOKOMO*        SUNNY     63  32  31 E13       30.00F
MUNCIE*        SUNNY     66  32  28 E15       29.98S
INDIANAPOLIS   MOSUNNY   66  37  34 NE14      29.96F

$$

MIZ043>046-050>051-056>058-064>065-071>073-077>080-241600-
SOUTHWEST LOWER MICHIGAN

CITY           SKY/WX    TMP DP  RH WIND       PRES   REMARKS
BATTLE CREEK   SUNNY     62  33  33 E13       30.06F
BENTON HARBOR    N/A     65  30  27 SE12      30.03F
COLDWATER*     SUNNY     62  32  31 E10       30.05S
HILLSDALE*     SUNNY     61  32  33 E9G17     30.05S
HOLLAND        SUNNY     59  43  55 E7        30.05F
GRAND RAPIDS   MOSUNNY   57  41  55 E7        30.06F
KALAMAZOO      SUNNY     64  31  28 SE7       30.06F
STURGIS*       SUNNY     63  30  29 E9        30.04S
THREE RIVERS*  FAIR      62  35  36 E7        30.05F

$$

OHZ001>008-015>018-024>025-241600-
NORTHWEST OHIO

CITY           SKY/WX    TMP DP  RH WIND       PRES   REMARKS
DEFIANCE       SUNNY     57  37  47 E12       30.03F
FINDLAY        SUNNY     62  37  39 NE13      30.00F
TOLEDO EXPRESS SUNNY     59  35  40 NE18      30.04F
TOLEDO METCALF SUNNY     57  37  47 NE16      30.06S
LIMA           SUNNY     61  36  39 NE10      29.99F

$$




USA.gov is the U.S. government's official web portal to all federal, state and local government web resources and services.